Regional Weather Roundup
Issued by NWS Goodland, KS

Home | Current Version | Previous Version | Graphics & Text | Print | Product List | Glossary On
Versions: 1 2 3 4 5 6 7 8 9 10 11 12 13 14 15 16 17 18 19 20 21 22 23 24 25 26 27 28 29 30 31 32 33 34 35 36 37 38 39 40 41 42 43 44 45 46 47 48 49 50
000
ASUS43 KGLD 291559
RWRGLD

GOODLAND FORECAST AREA HOURLY WEATHER ROUNDUP
NATIONAL WEATHER SERVICE GOODLAND KS
1000 AM MDT FRI AUG 29 2014

...OFFICIAL OBSERVATIONS...

CITY           SKY/WX    TMP DP  RH WIND       PRES   REMARKS
GOODLAND KS    SUNNY     76  54  46 NW9       30.00S
HILL CITY KS   SUNNY     73  61  65 NW9       29.91S
IMPERIAL NEB   SUNNY     73  57  57 NW8       29.96S
MCCOOK NEB     SUNNY     73  57  57 CALM      29.92S
AKRON CO       SUNNY     68  53  58 W13       30.06R
BURLINGTON CO  SUNNY     76  47  35 NW12      30.03S
LIMON CO       SUNNY     73  45  36 N10       30.12R
$$

...UNOFFICIAL OBSERVATIONS...

CITY           SKY/WX    TMP DP  RH WIND       PRES   REMARKS
COLBY KS       SUNNY     73  57  56 NW12G17   29.98R
GOVE KS          N/A     73  32  22 CALM        N/A
NORTON KS      SUNNY     73  54  49 W5        29.90S
SHARON SPRINGS   N/A     73  58  59 CALM        N/A
WAKEENEY KS      N/A     74  58  58 MISG        N/A
KIT CARSON CO    N/A     79  48  33 N5          N/A
YUMA CO          N/A     72  55  54 W9          N/A
$$


USA.gov is the U.S. government's official web portal to all federal, state and local government web resources and services.